1998-067XK

Last updated on Sat Feb 07 2026 00:02:11 GMT+0000 (Coordinated Universal Time)

1 65731U 98067XK 26037.51361173 .00289830 00000+0 12653-2 0 9995 2 65731 51.6225 211.1795 0003514 251.4294 108.6327 15.83357185 21928

Satellite not in orbit

1998-067XK